This is the latest recevied weather packets stored in our database for station/object I0UVN-10. If no packets are shown the sender has not sent any weather packets the latest 10 day(s).
| Time | Temp. | Humidity | Pressure | Rain* | Wind** | Luminosity | Snow |
|---|---|---|---|---|---|---|---|
| 1777644145 | 20° C | 54% | 1023.8 hPa | - | - | - | - |
| 1777643095 | 20° C | 55% | 1024 hPa | - | - | - | - |
| 1777641894 | 20° C | 53% | 1024 hPa | - | - | - | - |
| 1777641491 | 20° C | 52% | 1023.9 hPa | - | - | - | - |
| 1777640290 | 20° C | 54% | 1024.1 hPa | - | - | - | - |
| 1777639651 | 19.44° C | 54% | 1023.8 hPa | - | - | - | - |
| 1777639572 | 20° C | 53% | 1023.9 hPa | - | - | - | - |
| 1777639450 | 20° C | 55% | 1023.9 hPa | - | - | - | - |
| 1777638250 | 20° C | 54% | 1024.1 hPa | - | - | - | - |
| 1777637049 | 19.44° C | 52% | 1024.2 hPa | - | - | - | - |
| 1777636539 | 19.44° C | 50% | 1024.3 hPa | - | - | - | - |
| 1777636491 | 19.44° C | 51% | 1024.3 hPa | - | - | - | - |
| 1777635706 | 20° C | 55% | 1024.4 hPa | - | - | - | - |
| 1777635251 | 20° C | 55% | 1024.5 hPa | - | - | - | - |
| 1777634050 | 20° C | 53% | 1024.5 hPa | - | - | - | - |
| 1777633689 | 20° C | 53% | 1024.6 hPa | - | - | - | - |
| 1777632858 | 19.44° C | 49% | 1024.7 hPa | - | - | - | - |
| 1777632826 | 20° C | 52% | 1024.7 hPa | - | - | - | - |
| 1777631625 | 20° C | 52% | 1024.6 hPa | - | - | - | - |
| 1777630425 | 20° C | 56% | 1024.8 hPa | - | - | - | - |
| 1777629225 | 20° C | 56% | 1024.8 hPa | - | - | - | - |
| 1777628553 | 19.44° C | 57% | 1024.7 hPa | - | - | - | - |
| 1777628363 | 20° C | 57% | 1024.8 hPa | - | - | - | - |
| 1777627162 | 19.44° C | 57% | 1024.8 hPa | - | - | - | - |
| 1777627093 | 19.44° C | 57% | 1024.8 hPa | - | - | - | - |
* Rain since midnight (hover to see other rain measurements)
** Current wind speed in m/s (hover to see current wind gust speed)